Hourly Data Report for March 02, 2020

TORONTO CITY
ONTARIO
Current Station Operator: ECCC - MSC

43°40'00.000" N
79°24'00.000" W
112.50 m
6158355
71508
XTO

Download Data

Hourly Data (March 2020)
Hourly Data Report for March 2, 2020
TIME
LST
Temp Definition
°C
Dew Point Definition
°C
Rel Hum Definition
%
Precip. Amount Definition
mm

Wind Dir Definition
10's deg

Wind Spd Definition
km/h
Visibility Definition
km
Stn Press Definition
kPa
Hmdx Definition


Wind Chill Definition


Weather Definition


00:00 3.1 -2.7 66 0.0       99.58     LegendNANA
01:00 4.5 -3.9 54 0.0       99.48     LegendNANA
02:00 4.7 -4.2 52 0.0       99.41     LegendNANA
03:00 4.2 -3.4 58 0.0       99.30     LegendNANA
04:00 4.6 -3.9 54 0.0       99.23     LegendNANA
05:00 4.5 -3.8 55 0.0       99.20     LegendNANA
06:00 4.6 -3.9 54 0.0       99.17     LegendNANA
07:00 5.1 -2.0 60 0.0       99.11     LegendNANA
08:00 5.7 -1.2 61 0.0       99.10     LegendNANA
09:00 6.3 0.5 66 0.0       99.12     LegendNANA
10:00 5.9 2.5 79 0.0       99.11     LegendNANA
11:00 5.7 3.9 88 0.0       99.04     LegendNANA
12:00 5.5 4.0 90 0.0       99.01     LegendNANA
13:00 5.5 4.2 92 0.6       98.95     LegendNANA
14:00 5.4 4.2 92 0.6       98.92     LegendNANA
15:00 5.7 4.7 93 0.9       98.89     LegendNANA
16:00 6.2 5.1 93 0.0       98.91     LegendNANA
17:00 6.8 4.7 86 0.0       98.94     LegendNANA
18:00 6.4 3.8 84 0.0       98.96     LegendNANA
19:00 5.4 2.8 83 0.0       99.06     LegendNANA
20:00 4.6 1.7 81 0.0       99.11     LegendNANA
21:00 4.0 1.2 82 0.0       99.17     LegendNANA
22:00 3.2 0.9 85 0.0       99.19     LegendNANA
23:00 2.8 0.5 85 0.0       99.19     LegendNANA

Notes on Data Quality.

Legend

  • E = Estimated
  • M = Missing
  • NA = Not Available*
  • [empty] = Indicates an unobserved value
Date modified: